Location: Cactus School
(34.5700°N, 118.0931°W)
Time: 21:43:27
(UTC-08:00)

Vanguard 2 - Visible Passes

Search period start: 18 February 2018 00:00
Search period end: 28 February 2018 00:00
Orbit: 553 x 2939 km, 32.9° (Epoch: 18 February)

Date Brightness Start Highest point End Pass type
(mag) Time Alt. Az. Time Alt. Az. Time Alt. Az.
18 Feb 8.5 18:24:25 10° WSW 18:34:08 66° S 18:38:46 18° E visible
18 Feb 9.2 20:36:11 10° W 20:40:12 33° W 20:40:12 33° W visible
19 Feb 8.3 18:42:41 10° WSW 18:52:16 74° S 18:55:59 25° E visible
19 Feb 9.8 20:54:29 10° W 20:57:25 24° W 20:57:25 24° W visible
20 Feb 8.2 19:01:01 10° W 19:10:24 78° S 19:13:11 35° E visible
20 Feb 10.2 21:12:47 10° W 21:14:38 18° W 21:14:38 18° W visible
21 Feb 8.1 19:19:24 10° W 19:28:31 79° S 19:30:24 48° ESE visible
21 Feb 10.5 21:31:08 10° W 21:31:51 13° W 21:31:51 13° W visible
22 Feb 7.9 19:37:47 10° W 19:46:37 74° S 19:47:37 62° SE visible
23 Feb 8.1 19:56:09 10° W 20:04:40 65° SSW 20:04:50 65° S visible
24 Feb 8.9 18:01:38 10° W 18:13:36 81° S 18:20:29 10° E visible
24 Feb 8.5 20:14:33 10° W 20:22:03 52° SW 20:22:03 52° SW visible
25 Feb 8.8 18:20:06 10° W 18:31:47 80° S 18:37:52 14° E visible
25 Feb 9.1 20:32:59 10° W 20:39:18 38° SW 20:39:18 38° SW visible
26 Feb 8.8 18:38:34 10° W 18:49:55 74° SSW 18:55:07 19° ESE visible
26 Feb 9.7 20:51:34 10° W 20:56:33 27° WSW 20:56:33 27° WSW visible
27 Feb 8.8 18:57:01 10° W 19:07:59 66° SSW 19:12:24 24° ESE visible
27 Feb 10.2 21:10:25 10° W 21:13:50 19° WSW 21:13:50 19° WSW visible
